Regional Weather Roundup
Issued by NWS

Home | Current Version | Previous Version | Text Only | Print | Product List | Glossary On
Versions: 1 2 3 4 5 6 7 8 9 10 11 12 13 14 15 16 17 18 19 20 21 22 23 24 25 26 27 28 29 30 31 32 33 34 35 36 37 38 39 40 41 42 43 44 45 46 47 48 49 50
000
ASUS42 KKEY 300810
RWRKEY

FLORIDA REGIONAL WEATHER ROUNDUP FOR THE FLORIDA KEYS
NATIONAL WEATHER SERVICE KEY WEST FLORIDA
400 AM EDT SAT AUG 30 2014

...SOUTH FLORIDA AND THE KEYS...

CITY           SKY/WX    TMP DP  RH WIND       PRES   REMARKS
FORT MYERS     PTCLDY    75  74  96 E3        30.06S
SW REGIONAL AP PTCLDY    75  73  93 E6        30.06F
NAPLES         PTCLDY    77  74  90 E9        30.05F
MIAMI          PTCLDY    84  74  71 SE7       30.06F HX  91
WEST KENDALL   CLEAR     84  75  74 SE7       30.06F HX  92
HOMESTEAD      CLEAR     84  76  77 E7        30.06F HX  92
MARATHON       PTCLDY    85  77  77 SE8       30.04F HX  95
BOCA CHICA NAS PTCLDY    85  75  72 E15       30.03F HX  93
KEY WEST INTL  PTCLDY    86  74  67 E15G22    30.03F HX  94

...INTERNATIONAL WEATHER...

CITY           SKY/WX    TMP DP  RH WIND       PRES   REMARKS
NASSAU BAHAMAS NOT AVBL
CANCUN MEXICO  PTCLDY    82  77  83 NE3       29.93F HX  91
COZUMEL MEXICO   N/A    N/A N/A N/A MISG        N/A

ADJACENT COASTAL WATERS...

STATION/POSITION TIME  SKY/WX   TEMP    WIND        PRES    WAVE
                                AIR SEA DIR/SP/G            HT/PER
                 (UTC)          (F)     (DEG/KT/KT) (MB)    (FT/S)
PULASKI SHOAL LI 0800            86     120/ 20/ 21 1016.1F
SAND KEY         0736            85     110/ 16/ 20 1016.8F
SOMBRERO KEY     0800            85     120/ 18/ 20 1017.9F
LONG KEY         0700            86 87  130/ 13/ 14 1018.4F
MOLASSES REEF    0800            85 87  100/ 12/ 14 1017.6F
FOWEY ROCKS      0800            85 87  120/ 14/ 15 1018.2F
Buoy 42080       NOT AVBL

$$



USA.gov is the U.S. government's official web portal to all federal, state and local government web resources and services.